Location: Freistadt
(48.5112°N, 14.5013°E)
Time: 22:22:14
(UTC+02:00)

M-CUBED/EXP-1 PRIME - Pass Details

Date: 05 April 2023
Orbit: 405 x 573 km, 101.7° (Epoch: 31 May)

Event Time Altitude Azimuth Distance (km) Brightness Sun altitude
Rises 01:22:14 0° 26° (NNE) 2,816 ? -35.5°
Reaches altitude 10° 01:24:35 10° 36° (NE) 1,895 ? -35.4°
Enters shadow 01:24:59 12° 38° (NE) 1,741 ? -35.4°
